www.pogodaiklimat.ru

Погода и климат >> Архив погоды >> Финляндия >> Раахе Лапалуто


ПОГОДА в Раахе Лапалуто

  • Прогноз погоды в Раахе Лапалуто
  • Монитор погоды в Раахе Лапалуто

АРХИВ ПОГОДЫ в Раахе Лапалуто

Время (UTC), дата Ветер
(напр.,м/с)
 
Видим.   Явления Облачность Т
(С)
Тd
(С)
f
(%)
Тe
(С)
Тes
(С)
Комфортность P
(гПа)
Po
(гПа)
Тmin
(С)
Tmax
(С)
R
(мм)
R24
(мм)
S
(см)
01 12.08 ЮВ 6 45 км н/о +15.5 +11.1 75 +14 +14 1007.3 1006.7
02 12.08 ЮВ 8 40 км н/о +15.1 +11.7 80 +13 +13 1007.0 1006.4
03 12.08 ЮВ 6-9
{13}
7000 м морось {дождь} н/о +13.7 +12.3 91 +11 +11 1007.0 1006.4
04 12.08 ЮВ 6-10
{10}
18 км слаб. ливневой дождь н/о +13.8 +12.5 92 +12 +12 1006.8 1006.2
05 12.08 ЮВ 6-10
{11}
27 км в посл. час дождь н/о +14.2 +13.2 94 +12 +12 1006.5 1005.8
06 12.08 ЮВ 6-8
{10}
30 км {ливн. осадки, дождь} н/о +14.8 +13.7 93 +13 +13 1006.2 1005.6 +13.5 +19.7
07 12.08 ЮВ 7 29 км н/о +15.5 +14.0 91 +14 +14 1006.1 1005.5
08 12.08 ЮВ 6 30 км н/о +16.0 +14.3 90 +15 +15 1006.3 1005.7
09 12.08 ЮВ 7-9
{11}
30 км н/о +17.7 +14.8 83 +17 +17 1006.1 1005.5
10 12.08 ЮВ 6-8
{9}
30 км н/о +18.1 +14.8 81 +18 +18 1005.9 1005.3
11 12.08 Ю 4-5
{7}
35 км слаб. ливневой дождь н/о +19.4 +15.3 77 +21 +21 комфорт 1005.6 1005.0
12 12.08 Ю 5-7
{7}
5000 м сильн. ливневой дождь н/о +16.5 +16.2 98 +16 +16 1006.0 1005.4
13 12.08 ЮВ 1 10 км слаб. дождь н/о +15.9 +15.9 100 +17 +17 1005.8 1005.2
14 12.08 Ю 5 18 км ливневой дождь н/о +16.2 +15.5 96 +15 +15 1005.8 1005.3
15 12.08 Ю 2-3
{4}
30 км в посл. час дождь {ливн. осадки} н/о +19.1 +16.5 85 +21 +21 комфорт 1005.5 1004.9
16 12.08 В 4 45 км н/о +17.5 +15.9 90 +17 +17 1005.4 1004.8
17 12.08 ЮВ 5-6
{8}
6000 м дождь н/о +15.9 +15.3 96 +15 +15 1005.5 1004.9
18 12.08 ЮВ 4-5
{7}
19 км слаб. ливневой дождь н/о +15.4 +15.1 98 +14 +14 1005.6 1005.0 +14.8 +19.5
19 12.08 ЮВ 4-5
{8}
11 км дождь н/о +15.2 +15.0 99 +14 +14 1005.8 1005.2
20 12.08 ЮВ 3-5
{5}
14 км слаб. дождь н/о +15.2 +15.0 99 +14 +14 1005.6 1005.0
21 12.08 В 3-4
{5}
21 км в посл. час дождь {ливн. осадки} н/о +14.5 +14.5 100 +13 +13 1005.4 1004.8
22 12.08 В 4 23 км н/о +14.4 +14.4 100 +13 +13 1005.4 1004.8
23 12.08 ЮВ 4 19 км н/о +14.8 +14.6 99 +13 +13 1005.2 1004.6
00 13.08 ЮВ 4-6
{7}
24 км {ливн. осадки, дождь} н/о +14.4 +13.9 97 +13 +13 1005.0 1004.4
01 13.08 Ю 5-7
{7}
25 км н/о +14.5 +13.3 93 +13 +13 1005.0 1004.5
02 13.08 ЮВ 5 25 км н/о +14.4 +13.6 95 +13 +13 1004.8 1004.2
03 13.08 ЮВ 4-6
{7}
24 км н/о +13.9 +13.4 97 +12 +12 1004.5 1003.9
04 13.08 ЮВ 4 22 км н/о +14.0 +13.2 95 +12 +12 1004.5 1003.9
05 13.08 ЮВ 4-8
{8}
22 км н/о +14.2 +13.7 97 +13 +13 1004.3 1003.7
06 13.08 ЮВ 5-7
{8}
16 км н/о +15.2 +14.2 94 +14 +14 1004.3 1003.7 +13.8 +15.4
07 13.08 ЮВ 4 22 км н/о +15.5 +14.4 93 +14 +14 1004.2 1003.7
08 13.08 ЮВ 4-6
{6}
13 км слаб. ливневой дождь н/о +15.4 +14.7 96 +14 +14 1004.4 1003.8
09 13.08 ЮВ 4-5
{7}
14 км слаб. ливневой дождь н/о +15.5 +14.8 96 +14 +14 1004.4 1003.8
10 13.08 ЮВ 3 16 км в посл. час дождь н/о +16.1 +15.1 94 +16 +16 1004.4 1003.8
11 13.08 З 1 17 км н/о +16.2 +15.5 96 +17 +17 1004.0 1003.4
12 13.08 СЗ 3-3
{4}
15 км в посл. час дождь {ливн. осадки} н/о +15.0 +14.7 98 +14 +14 1003.8 1003.2
13 13.08 СЗ 2 28 км н/о +16.4 +14.1 86 +16 +16 1003.6 1003.0
14 13.08 С 2 28 км н/о +17.2 +14.4 84 +18 +18 1003.5 1002.9
15 13.08 Ю 1-2
{3}
30 км {метель} н/о +18.0 +14.4 79 +19 +19 1003.5 1002.9
16 13.08 Ю 4 50 км н/о +16.9 +13.8 82 +16 +16 1003.4 1002.8
17 13.08 штиль 0 45 км н/о +16.8 +13.9 83 +17 +17 1003.1 1002.5
18 13.08 Ю 3-4
{5}
40 км {метель} н/о +15.5 +14.8 96 +15 +15 1003.5 1002.9 +14.5 +18.3
19 13.08 Ю 4 16 км морось н/о +14.9 +14.4 97 +14 +14 1003.3 1002.7
20 13.08 Ю 4 24 км слаб. дождь н/о +14.4 +14.1 98 +13 +13 1003.4 1002.8
21 13.08 ЮВ 2-3
{4}
7000 м в посл. час морось {дождь} н/о +14.5 +13.6 94 +14 +14 1003.4 1002.8
22 13.08 ЮВ 2 45 км н/о +13.9 +13.6 98 +13 +13 1003.2 1002.6
23 13.08 Ю 4 2100 м ливневой дождь н/о +13.7 +13.7 100 +12 +12 1003.2 1002.6
00 14.08 В 1-1
{5}
28 км слаб. дождь н/о +13.4 +13.3 99 +13 +13 1002.7 1002.1
01 14.08 ЮВ 3 35 км в посл. час дождь н/о +13.5 +13.4 99 +12 +12 1002.7 1002.1
02 14.08 Ю 4-6
{6}
50 км н/о +13.5 +12.8 96 +12 +12 1002.6 1002.0
03 14.08 Ю 4-5
{7}
11 км н/о +13.6 +13.6 100 +12 +12 1002.6 1002.0
04 14.08 Ю 3 16 км н/о +14.1 +13.4 96 +13 +13 1002.4 1001.8
05 14.08 Ю 3 20 км н/о +14.2 +13.5 96 +13 +13 1002.3 1001.8
06 14.08 Ю 3-4
{5}
21 км в посл. час осадки н/о +14.4 +13.6 95 +13 +13 1002.3 1001.8 +13.2 +15.8
07 14.08 Ю 3-5
{5}
3400 м сильн. ливневой дождь н/о +14.4 +14.0 97 +13 +13 1002.4 1001.8
08 14.08 Ю 2-3
{4}
24 км слаб. ливневой дождь н/о +14.9 +14.2 96 +15 +15 1002.2 1001.6
09 14.08 ЮЗ 2-2
{3}
27 км {ливн. осадки, дождь} н/о +13.9 +13.5 97 +13 +13 1002.3 1001.7
10 14.08 СЗ 1 28 км н/о +15.0 +14.2 95 +15 +15 1002.2 1001.6
11 14.08 С 1 28 км н/о +14.8 +13.7 93 +15 +15 1002.0 1001.4
12 14.08 С 1-2
{2}
30 км {ливн. осадки, дождь} н/о +14.9 +13.9 94 +15 +15 1002.0 1001.4
13 14.08 С 2 28 км н/о +15.2 +13.6 90 +15 +15 1001.9 1001.3
14 14.08 З 2-2
{3}
30 км н/о +15.6 +13.4 87 +15 +15 1002.0 1001.5
15 14.08 ЮЗ 3-3
{3}
30 км н/о +16.9 +13.8 82 +17 +17 1001.6 1001.0
16 14.08 ЮЗ 3 30 км н/о +16.4 +13.9 85 +16 +16 1001.5 1000.9
17 14.08 ЮЗ 3 17 км н/о +14.5 +13.8 96 +13 +13 1001.9 1001.3
18 14.08 З 2-2
{4}
30 км н/о +13.9 +13.7 99 +13 +13 1002.0 1001.4 +13.4 +17.7
19 14.08 ЮЗ 5 25 км н/о +14.4 +13.9 97 +13 +13 1002.1 1001.5
20 14.08 Ю 6 50 км н/о +13.8 +13.2 96 +12 +12 1002.1 1001.5
21 14.08 Ю 6-8
{8}
50 км н/о +13.7 +12.5 92 +11 +11 1001.7 1001.1
22 14.08 Ю 6 50 км н/о +13.5 +12.0 91 +11 +11 1001.6 1001.0
23 14.08 Ю 6 50 км н/о +13.5 +11.7 89 +11 +11 1001.5 1000.9
00 15.08 Ю 6-9
{9}
50 км н/о +12.8 +12.1 96 +10 +10 1001.4 1000.8
01 15.08 Ю 6 50 км н/о +12.5 +11.9 96 +10 +10 1001.5 1000.9
02 15.08 Ю 7-8
{9}
50 км н/о +12.3 +11.7 96 +9 +9 1001.4 1000.8
03 15.08 Ю 6-8
{8}
50 км н/о +12.2 +11.6 96 +9 +9 1001.4 1000.8
04 15.08 Ю 5-7
{8}
50 км н/о +12.2 +11.4 95 +10 +10 1001.2 1000.6
05 15.08 Ю 6 50 км н/о +12.2 +11.5 95 +9 +9 1001.4 1000.8
06 15.08 Ю 7-8
{8}
50 км н/о +12.7 +11.7 94 +10 +10 1001.3 1000.7 +12.0 +14.5
07 15.08 Ю 5 45 км н/о +13.2 +12.0 92 +11 +11 1001.5 1000.9
08 15.08 Ю 6 40 км н/о +13.7 +12.2 91 +11 +11 1001.5 1000.9
09 15.08 Ю 7-8
{9}
45 км н/о +14.3 +12.3 88 +12 +12 1001.7 1001.1
10 15.08 ЮЗ 7 45 км н/о +14.6 +12.6 88 +12 +12 1001.8 1001.2
11 15.08 ЮЗ 7-7
{9}
40 км н/о +14.5 +13.1 91 +12 +12 1002.0 1001.4
12 15.08 ЮЗ 6-6
{8}
35 км н/о +14.0 +13.1 94 +12 +12 1002.1 1001.5
13 15.08 ЮЗ 6 35 км н/о +13.9 +13.2 96 +12 +12 1002.3 1001.7
14 15.08 ЮЗ 6-6
{7}
40 км н/о +14.2 +12.9 92 +12 +12 1002.7 1002.1
15 15.08 ЮЗ 6-9
{9}
10 км н/о +13.3 +13.0 98 +11 +11 1003.1 1002.5
16 15.08 ЮЗ 6 9000 м дождь н/о +13.4 +13.4 100 +11 +11 1003.3 1002.7
17 15.08 ЮЗ 8 29 км в посл. час дождь н/о +13.3 +13.3 100 +10 +10 1003.4 1002.8
18 15.08 ЮЗ 6-8
{8}
50 км {ливн. осадки, дождь} н/о +13.2 +13.0 99 +11 +11 1003.7 1003.1 +12.7 +15.6
19 15.08 ЮЗ 6-7
{8}
50 км н/о +13.1 +13.1 100 +11 +11 1003.9 1003.3
20 15.08 Ю 5-6
{7}
50 км н/о +13.4 +13.1 98 +11 +11 1004.2 1003.6
21 15.08 ЮЗ 6-7
{7}
45 км н/о +13.3 +13.3 100 +11 +11 1004.4 1003.8
22 15.08 Ю 7 21 км н/о +13.1 +13.1 100 +10 +10 1004.7 1004.1
23 15.08 ЮЗ 7 45 км н/о +13.3 +13.2 99 +11 +11 1005.1 1004.5
00 16.08 ЮЗ 6-7
{7}
40 км в посл. час осадки {ливн. осадки} н/о +13.2 +13.2 100 +11 +11 1005.5 1004.9
01 16.08 Ю 6 50 км н/о +13.3 +13.3 100 +11 +11 1005.8 1005.2
02 16.08 ЮЗ 7-8
{8}
40 км н/о +13.1 +13.1 100 +10 +10 1006.1 1005.5
03 16.08 ЮЗ 7-8
{8}
45 км {метель} н/о +13.2 +13.2 100 +10 +10 1006.4 1005.8
04 16.08 ЮЗ 7 50 км н/о +13.3 +13.2 99 +11 +11 1006.8 1006.2
05 16.08 ЮЗ 8-8
{9}
40 км н/о +13.2 +13.1 99 +10 +10 1007.3 1006.7
06 16.08 Ю 6-7
{8}
45 км {метель} н/о +13.2 +12.9 98 +11 +11 1008.0 1007.4 +12.9 +13.5
07 16.08 Ю 7 45 км н/о +13.3 +12.8 97 +11 +11 1008.5 1007.9
08 16.08 Ю 7 50 км н/о +13.5 +12.9 96 +11 +11 1008.9 1008.3
09 16.08 Ю 6-8
{9}
40 км н/о +14.1 +12.9 92 +12 +12 1009.4 1008.8
10 16.08 ЮЗ 7-8
{8}
45 км н/о +14.3 +12.9 91 +12 +12 1010.0 1009.3
11 16.08 Ю 8 40 км н/о +14.5 +13.0 91 +12 +12 1010.3 1009.7
12 16.08 Ю 6-8
{8}
40 км н/о +15.0 +12.7 86 +13 +13 1010.7 1010.1
13 16.08 Ю 7 40 км н/о +15.4 +12.5 83 +14 +14 1010.9 1010.3
14 16.08 ЮЗ 7 45 км н/о +16.0 +12.0 77 +14 +14 1011.0 1010.4
15 16.08 ЮЗ 6-8
{9}
40 км н/о +16.5 +12.0 75 +15 +15 1010.9 1010.3
16 16.08 ЮЗ 6 45 км н/о +16.2 +11.7 75 +15 +15 1010.9 1010.3
17 16.08 Ю 6-8
{9}
40 км н/о +16.2 +11.0 71 +15 +15 1010.8 1010.2
18 16.08 Ю 7-9
{9}
50 км н/о +16.2 +9.2 63 +15 +15 1011.0 1010.4 +13.1 +16.7
19 16.08 Ю 6 50 км н/о +15.4 +9.4 67 +14 +14 1011.2 1010.5
20 16.08 Ю 7-8
{8}
50 км н/о +15.5 +9.7 68 +14 +14 1011.4 1010.8
21 16.08 Ю 7-8
{8}
35 км н/о +15.3 +10.8 75 +14 +14 1011.5 1010.8
22 16.08 Ю 5 27 км н/о +14.7 +9.8 72 +13 +13 1011.5 1010.9
23 16.08 Ю 5 30 км н/о +14.4 +9.4 72 +13 +13 1011.5 1010.9
00 17.08 Ю 7-9
{10}
23 км н/о +14.6 +9.1 70 +13 +13 1011.3 1010.7
01 17.08 ЮВ 5 30 км н/о +14.5 +9.8 73 +13 +13 1011.2 1010.5
02 17.08 ЮВ 6-8
{9}
35 км н/о +15.0 +10.1 72 +13 +13 1010.9 1010.3
03 17.08 Ю 7-9
{10}
35 км н/о +15.2 +10.9 75 +13 +13 1010.6 1010.0
04 17.08 Ю 6 30 км н/о +15.5 +11.0 75 +14 +14 1010.5 1009.9
05 17.08 Ю 6 40 км н/о +15.7 +11.5 76 +14 +14 1010.6 1010.0
06 17.08 Ю 5-9
{10}
26 км н/о +16.4 +12.2 76 +15 +15 1010.4 1009.8 +14.1 +16.4
07 17.08 Ю 6-8
{9}
35 км н/о +16.8 +12.5 76 +16 +16 1010.5 1009.9
08 17.08 Ю 6 45 км н/о +17.1 +12.9 76 +16 +16 1010.5 1009.9
09 17.08 Ю 5-8
{9}
40 км н/о +18.8 +13.6 72 +19 +19 1010.3 1009.7
10 17.08 Ю 6 35 км н/о +19.0 +14.0 73 +20 +20 1010.4 1009.8
11 17.08 Ю 6 40 км н/о +19.1 +14.2 73 +20 +20 1010.4 1009.8
12 17.08 ЮЗ 4-5
{6}
30 км н/о +18.1 +14.5 79 +18 +18 1010.5 1009.9
13 17.08 ЮЗ 3 30 км н/о +17.8 +14.2 79 +18 +18 1010.2 1009.7
14 17.08 З 2 30 км н/о +18.1 +13.9 76 +19 +19 1009.9 1009.3
15 17.08 З 1-2
{2}
40 км н/о +18.2 +14.0 76 +20 +20 1009.6 1009.0
16 17.08 Ю 1 40 км н/о +19.3 +13.8 70 +22 +22 комфорт 1009.2 1008.7
17 17.08 штиль 0-9
{13}
13 км н/о +19.9 +13.6 67 +22 +22 комфорт 1009.4 1008.8
18 17.08 Ю 9-12
{12}
27 км {ливн. осадки, дождь} н/о +18.6 +14.8 79 +18 +18 1009.6 1009.0 +15.8 +20.5
19 17.08 ЮЗ 6 24 км слаб. ливневой дождь н/о +14.9 +14.4 97 +13 +13 1010.3 1009.7
20 17.08 Ю 5 26 км в посл. час дождь н/о +15.4 +14.5 94 +14 +14 1010.2 1009.6
21 17.08 ЮВ 5-7
{8}
28 км {ливн. осадки, дождь} н/о +16.7 +15.1 90 +16 +16 1009.9 1009.3
22 17.08 Ю 8 23 км морось н/о +16.8 +14.0 84 +15 +15 1010.3 1009.7
23 17.08 ЮВ 6-9
{12}
35 км в посл. час дождь н/о +15.8 +13.9 88 +14 +14 1010.5 1009.9
00 18.08 ЮВ 6-8
{10}
10 км {ливн. осадки, дождь} н/о +16.0 +14.0 88 +15 +15 1010.5 1010.0
01 18.08 Ю 6 40 км н/о +15.8 +13.9 88 +14 +14 1010.4 1009.8
02 18.08 Ю 7 45 км н/о +15.2 +13.6 90 +13 +13 1010.4 1009.8
03 18.08 ЮВ 7-10
{10}
17 км {дымка} н/о +14.6 +12.9 90 +12 +12 1010.3 1009.7
04 18.08 ЮВ 7 30 км н/о +15.2 +12.6 84 +13 +13 1010.3 1009.7
05 18.08 ЮВ 7 40 км н/о +16.5 +12.7 78 +15 +15 1010.1 1009.5
06 18.08 ЮВ 7-9
{11}
35 км {дымка} н/о +17.6 +13.3 76 +17 +17 1009.9 1009.3 +14.5 +18.6
07 18.08 Ю 8 40 км н/о +17.9 +13.2 74 +17 +17 1009.8 1009.2
08 18.08 ЮВ 7-12
{12}
35 км н/о +18.4 +13.6 74 +18 +18 1009.6 1009.0
09 18.08 ЮВ 6-9
{11}
29 км н/о +17.7 +14.4 81 +17 +17 1009.7 1009.1
10 18.08 ЮВ 6 28 км н/о +19.0 +14.5 75 +20 +20 1009.8 1009.2
11 18.08 Ю 6 30 км н/о +19.8 +13.9 69 +21 +21 комфорт 1009.6 1009.0
12 18.08 Ю 4-5
{11}
19 км морось {дождь} н/о +16.5 +15.3 93 +16 +16 1009.7 1009.1
13 18.08 ЮЗ 4-10
{10}
19 км слаб. дождь н/о +15.8 +15.1 96 +15 +15 1009.8 1009.2
14 18.08 ЮВ 5-7
{10}
27 км слаб. дождь н/о +16.8 +15.0 89 +16 +16 1009.7 1009.1
15 18.08 ЮВ 7-10
{10}
25 км слаб. ливневой дождь н/о +17.6 +14.9 84 +17 +17 1009.5 1009.0
16 18.08 ЮВ 5 30 км слаб. дождь н/о +16.8 +16.0 95 +16 +16 1009.4 1008.8
17 18.08 ЮВ 7 14 км ливневой дождь н/о +16.8 +15.6 93 +16 +16 1009.4 1008.8
18 18.08 ЮВ 7-10
{11}
23 км слаб. дождь н/о +16.5 +15.1 91 +15 +15 1009.2 1008.6 +15.2 +19.9
19 18.08 ЮВ 8-10
{12}
30 км слаб. ливневой дождь н/о +16.6 +14.7 89 +15 +15 1009.2 1008.6
20 18.08 ЮВ 8 30 км слаб. ливневой дождь н/о +16.4 +14.2 87 +15 +15 1008.8 1008.3
21 18.08 ЮВ 7-10
{11}
45 км {ливн. осадки, дождь} н/о +16.1 +13.8 86 +15 +15 1008.6 1008.0
22 18.08 ЮВ 8 40 км н/о +16.2 +13.3 83 +15 +15 1008.2 1007.6
23 18.08 ЮВ 6-10
{10}
40 км н/о +16.4 +12.8 79 +15 +15 1007.7 1007.1
00 19.08 ЮВ 7-10
{10}
35 км {ливн. осадки, дождь} н/о +16.0 +12.2 78 +14 +14 1007.1 1006.5
01 19.08 ЮВ 6-11
{11}
40 км н/о +15.4 +12.4 82 +14 +14 1006.5 1005.9

 

Местоположение метеостанции Раахе Лапалуто (Финляндия): широта 64.67 долгота 24.41 высота над уровнем моря 2 м.

В архиве по умолчанию представлена погода в Раахе Лапалуто за последнюю неделю. Архивные данные за месяц целиком и за предыдущие месяцы, начиная с января 2011 года, Вы можете получить, выбрав интересующий диапазон дат из раскрывающегося списка и нажав кнопку "Ввод!".


*Определитесь, кто Вы:
робот инопланетянин человек

Внимание! Время в таблицах - всемирное. Для получения местного времени необходимо прибавить поправку, которая равна 1 ч.

Смотрите также архив погоды в соседних городах и на ближайших метеорологических станциях:

Погода на Маяке Nahkiainen (Финляндия) (25 км)
Погода в Ревонлахти (Финляндия) (32 км)
Погода на Гуфускаларе (Исландия) (34 км)
Погода на Маяке Marjaniemi (Финляндия) (42 км)
Погода в Хайлуото (Финляндия) (42 км)
Погода в Оулунсало Пеллонпаа (Финляндия) (54 км)
Погода на Острове Улкокалла (Финляндия) (60 км)
Погода в Оулу (Финляндия) (60 км)
Погода в Юливиеске (Финляндия) (71 км)
Погода в Мустиккамаки (Финляндия) (76 км)

Пояснения к столбцам:

Ветер - указаны скорость ветра в м/с - средняя за 10 мин, порывы в срок и между сроками (в фигурных скобках) и направление, откуда дует ветер: С - северный, СВ - северо-восточный, В - восточный, ЮВ - юго-восточный, Ю - южный, ЮЗ - юго-западный, З - западный, СЗ - северо-западный.
Видимость - горизонтальная дальность видимости в метрах или километрах. При видимости от 1 до 10 км при отсутствии осадков обычно наблюдается дымка, при ухудшении видимости до 1 км и менее - туман. В сухую погоду видимость может ухудшаться дымом, пылью или мглою.
Явления - указаны атмосферные явления, наблюдавшиеся в срок или в последний час перед сроком; фигурными скобками обозначены явления, наблюдавшиеся между сроками (за 1-3 часа до срока); квадратными скобками обозначены град или гололедные отложения с указанием их диаметра в мм.
Облачность - указаны через наклонную черту общая и нижняя облачность в баллах и высота нижней границы облаков в метрах; квадратными скобками обозначены формы облаков: Ci - перистые, Cs - перисто-слоистые, Cc - перисто-кучевые, Ac - высококучевые, As - высокослоистые, Sc - слоисто-кучевые, Ns - слоисто-дождевые, Cu - кучевые, Cb - кучево-дождевые. Подробнее классификацию облаков см. в Атласе облаков (PDF).
T - Температура воздуха - температура, измеренная на высоте 2 м над землей.
Td - Температура точки росы - температура, при понижении до которой содержащийся в воздухе водяной пар достигнет насыщения.
f - Относительная влажность воздуха - влажноcть воздуха, измеренная на высоте 2 м над землей.
Te - Эффективная температура - температура, которую ощущает одетый по сезону человек в тени. Характеристика душности погоды. При расчете учитывается влияние влажности воздуха и скорости ветра на теплоощущения человека.
Tes - Эффективная температура на солнце - температура, которую ощущает человек, с поправкой на солнечный нагрев. Характеристика знойности погоды. Зависит от высоты солнца над горизонтом, облачности и скорости ветра. Ночью, в пасмурную погоду, а также при ветре 12 м/с и более поправка равна нулю.
P - Атмосферное давление - приведенное к уровню моря атмосферное давление.
Po - Атмосферное давление - измеренное на уровне метеостанции атмосферное давление.
Tmin - Минимальная температура - минимум температуры воздуха на высоте 2 м над землей.
Tmax - Максимальная температура - максимум температуры воздуха на высоте 2 м над землей.
R - Количество осадков - Количество выпавших осадков за период времени, мм. При наведении курсора мыши на число - период времени, за который выпало указанное количество осадков.
R24 - Количество осадков - Количество выпавших осадков за 24 часа, мм.
S - Снежный покров - Высота снежного покрова, см. При наведении курсора мыши на число - состояние снежного покрова и степень покрытия местности в баллах.